Wind_Speed
18 19 20 18 17 18 20 21 23 24 24 25 28 32 35 36 37 39 41 41 42 44 44 44 45 48 49 48 48 49 50 51 51 49 48 48 49 48 47 47 48 45 46
18 22 22 20 19 20 22 23 25 26 28 31 35 37 39 41 42 44 46 48 48 49 50 49 47 49 51 51 52 53 54 54 53 53 52 52 53 53 52 51 51 50 50
21 23 22 21 21 23 26 28 30 32 35 37 39 41 44 47 49 50 50 53 55 55 55 54 53 54 56 57 56 55 56 55 55 57 57 56 56 57 58 58 56 54 54
19 20 21 21 22 24 27 30 34 38 41 42 43 45 48 52 53 54 55 57 58 59 60 61 62 61 62 63 61 58 58 58 58 56 56 57 59 60 62 63 63 60 58
22 22 22 22 21 25 31 33 36 40 43 45 47 50 54 57 58 58 60 61 61 62 64 67 69 67 67 67 65 61 61 62 60 57 57 58 60 63 64 66 68 68 65
27 28 28 28 29 34 37 39 40 40 44 46 49 53 57 60 60 63 64 65 66 68 68 69 70 69 68 66 64 64 60 56 53 54 56 57 59 61 63 68 72 72 72
33 35 36 35 34 37 40 42 43 45 48 48 50 54 58 60 63 63 65 65 69 71 71 68 63 61 60 57 53 54 53 51 52 53 55 57 58 58 60 64 71 72 72
36 36 39 39 40 43 44 45 48 50 52 53 55 57 59 61 63 64 66 69 70 66 62 56 51 49 47 46 47 47 47 49 52 51 51 53 55 55 57 56 63 69 71
41 40 43 46 48 49 49 50 54 54 54 57 58 59 61 63 64 66 69 66 60 51 51 51 47 46 45 43 45 49 50 50 52 54 54 53 55 56 55 55 54 59 68
46 47 49 50 52 53 54 56 56 56 56 58 60 62 62 62 60 56 53 49 45 43 44 45 44 45 47 47 48 49 52 54 55 57 57 55 55 56 57 57 55 53 62
52 53 51 46 45 50 53 54 54 56 59 60 61 62 60 56 51 47 44 44 43 42 43 45 47 49 51 51 51 52 54 56 58 58 56 54 53 53 55 56 58 55 54
50 47 47 47 50 52 54 56 57 58 58 59 60 59 56 51 48 47 45 45 44 42 46 50 52 53 54 55 56 57 58 57 58 56 54 53 51 51 51 53 57 56 53
42 39 47 53 54 54 55 57 57 57 57 59 59 57 53 50 49 48 48 48 50 50 51 54 57 58 58 60 62 62 61 59 57 54 52 51 50 50 50 49 52 54 53
40 45 50 52 53 55 56 55 55 57 60 59 56 54 52 50 50 50 54 57 58 57 57 59 60 62 63 64 65 63 60 57 55 53 52 50 48 49 48 48 49 49 50
43 47 52 54 55 54 52 55 57 59 59 57 55 53 53 54 55 56 59 62 63 63 62 61 59 59 61 61 61 60 59 56 55 54 52 49 48 48 47 46 46 48 48
45 50 53 52 50 52 55 57 58 58 56 55 55 55 56 58 58 59 61 63 64 64 63 59 55 54 54 56 56 56 55 53 53 53 49 48 48 46 44 43 44 46 46
47 50 48 49 52 55 56 57 57 55 55 57 57 57 57 58 59 61 62 63 63 62 61 56 48 42 41 45 45 46 46 45 45 45 42 41 43 44 42 39 42 41 39
45 45 47 50 53 55 56 56 55 54 55 57 57 57 58 59 59 60 60 60 59 56 52 45 41 37 38 39 39 41 40 40 39 37 33 34 37 39 39 39 40 40 38
45 47 49 50 53 54 53 53 53 53 54 54 56 58 59 60 58 55 52 48 46 45 43 39 35 35 36 36 37 37 35 32 28 25 25 28 32 35 37 38 39 38 37
47 48 49 49 50 51 52 52 52 53 53 55 57 58 57 54 48 43 39 37 35 34 32 30 28 29 30 31 31 28 22 18 16 17 20 23 25 28 31 34 35 35 36
45 46 47 48 50 51 51 51 52 54 55 56 54 52 49 44 41 41 38 33 28 25 22 20 21 22 25 27 23 17 13 11 10 11 14 18 20 23 26 29 30 30 33
44 46 48 50 51 51 51 52 53 55 53 50 46 44 43 42 42 41 34 28 23 19 17 17 18 21 23 18 13 11 7 8 9 10 13 16 19 21 22 24 28 31 30
45 47 50 50 50 50 51 52 53 51 46 42 40 40 38 35 35 31 26 23 20 18 17 17 17 17 13 11 9 5 4 6 9 11 12 13 15 19 22 25 27 28 30
47 49 50 49 49 49 50 50 48 44 40 37 36 34 31 30 26 21 19 17 14 13 13 13 10 8 8 7 5 4 5 8 9 10 10 11 13 17 21 24 26 29 32
49 50 48 47 48 49 47 45 42 39 34 32 32 30 27 24 19 14 13 12 10 9 8 4 3 3 3 3 4 4 6 8 9 6 6 10 16 21 24 24 22 22 25
48 47 46 46 47 45 42 40 37 32 29 29 28 28 24 19 16 12 10 7 5 3 4 5 3 2 1 3 6 8 8 7 4 3 7 11 15 18 15 13 16 14 14
Wind_Direction
291 299 305 299 293 289 287 285 285 284 281 282 285 288 292 292 291 288 285 283 280 281 283 283 280 277 275 275 275 273 271 269 267 264 262 261 262 261 258 256 256 256 254
293 288 286 285 284 287 291 292 291 288 288 291 293 293 292 289 287 285 283 283 281 280 281 281 278 275 273 272 272 272 270 269 268 267 265 265 264 262 259 256 254 254 255
289 288 288 289 292 298 300 298 294 292 292 292 292 291 289 288 287 285 282 281 280 279 280 280 277 276 274 274 274 272 270 269 268 268 266 265 263 261 259 256 252 251 252
299 300 299 299 301 306 306 303 297 293 290 289 287 287 287 285 282 281 279 278 278 279 280 278 277 276 276 275 274 272 273 273 272 268 266 264 261 259 260 258 254 252 251
302 302 301 299 296 303 307 305 300 297 291 286 284 283 283 282 281 280 278 276 276 277 278 279 278 277 275 274 273 271 271 272 271 269 269 266 262 260 259 259 258 256 253
298 296 295 292 291 300 305 305 300 299 295 288 284 284 284 284 284 283 281 280 279 278 277 276 277 276 274 273 270 268 267 266 269 272 271 268 266 263 260 258 256 256 256
298 292 287 288 291 293 298 300 301 299 296 290 287 286 286 285 283 281 279 279 278 277 277 277 275 275 276 273 267 263 264 267 269 270 269 269 268 267 265 259 254 254 255
295 290 285 286 288 290 293 296 298 302 298 292 291 289 288 287 285 284 281 279 278 278 275 274 275 275 274 271 269 265 263 266 269 271 271 271 269 266 265 263 255 252 252
289 285 289 289 289 289 292 295 297 296 293 292 294 293 290 288 287 285 284 284 282 275 271 271 273 272 272 271 269 268 269 269 271 272 272 272 270 266 262 261 259 256 250
291 287 296 301 298 293 292 292 295 295 294 293 293 293 292 289 286 285 286 285 280 276 273 271 271 273 274 274 274 274 274 274 274 273 274 273 270 266 260 257 258 258 253
291 288 293 298 298 291 289 291 294 295 294 294 295 295 293 291 289 286 284 281 280 278 274 272 273 273 273 273 274 274 275 275 274 273 272 271 269 266 261 255 254 257 258
292 292 292 293 294 293 293 293 293 293 294 295 296 296 294 292 290 288 286 284 283 280 278 277 277 276 274 274 274 276 277 277 275 273 271 270 270 267 261 254 250 252 253
299 295 290 291 293 294 294 295 295 296 295 295 295 294 292 291 290 288 286 285 284 283 281 279 279 278 276 275 275 277 277 274 273 270 270 270 267 264 262 257 252 248 245
294 292 292 293 294 297 297 296 295 294 293 293 292 292 291 289 287 287 287 287 286 285 283 280 280 279 278 277 277 276 274 272 269 268 270 269 263 258 259 258 253 247 242
294 294 294 295 298 297 295 295 294 292 291 292 293 292 290 288 288 289 289 287 286 285 283 282 281 279 278 277 275 273 272 269 269 270 270 264 257 253 256 257 250 241 238
294 295 297 298 296 295 296 294 291 291 294 295 294 292 291 291 291 291 290 289 288 286 284 283 281 278 276 274 272 271 269 270 270 270 266 258 250 248 253 253 242 235 235
296 296 295 295 296 296 294 293 294 296 297 296 294 293 292 293 294 295 293 291 289 287 284 284 281 277 275 273 272 271 271 270 270 269 263 253 244 245 250 245 235 233 235
297 295 294 296 296 295 295 295 296 297 296 296 296 297 298 298 297 295 292 289 287 284 284 285 284 278 273 273 274 275 274 272 269 263 252 247 245 245 245 236 233 234 235
296 295 295 295 294 294 294 295 296 297 298 300 301 302 301 299 297 295 294 293 291 288 283 279 278 274 273 275 278 280 280 275 264 252 249 248 244 240 233 231 233 235 235
298 296 294 294 295 296 296 298 301 303 304 305 305 303 300 297 295 295 297 297 298 295 288 277 270 272 273 275 278 281 277 264 256 252 247 239 235 230 230 233 236 236 234
296 296 297 299 300 301 303 307 308 309 309 308 305 302 299 295 292 295 297 294 296 296 289 278 273 272 272 276 278 272 267 270 254 232 221 224 225 227 233 237 239 238 237
301 303 304 305 306 308 311 312 312 312 311 308 305 303 302 296 293 295 291 288 289 288 283 281 276 273 275 274 262 263 271 263 243 229 225 229 230 235 240 242 243 242 240
309 309 309 309 310 313 314 314 314 313 310 307 307 308 307 302 297 293 284 282 284 282 283 283 278 276 272 254 245 237 239 257 246 243 238 241 249 253 252 249 246 246 243
312 311 311 311 313 315 316 315 314 312 311 310 310 312 310 307 300 290 279 276 284 285 285 284 280 268 247 235 209 207 239 232 233 234 234 245 257 262 262 259 258 255 251
313 311 311 313 315 316 316 314 313 314 313 314 316 316 315 313 308 293 280 279 279 278 279 264 203 219 199 178 176 206 208 199 203 210 239 261 268 270 271 271 262 257 252
310 311 313 315 316 316 314 313 314 314 316 319 322 321 321 316 311 297 284 267 245 227 163 156 188 244 199 154 168 182 183 172 170 238 261 269 272 273 262 244 239 246 256
Height
5854 5853 5851 5849 5847 5846 5844 5842 5841 5839 5837 5835 5834 5833 5830 5828 5825 5823 5818 5817 5815 5812 5810 5808 5806 5805 5804 5804 5803 5803 5802 5803 5805 5807 5808 5809 5810 5812 5813 5814 5814 5814 5813
5850 5848 5846 5844 5842 5840 5838 5836 5834 5832 5830 5828 5826 5823 5821 5818 5814 5812 5809 5805 5804 5801 5797 5795 5794 5792 5791 5791 5791 5791 5791 5791 5791 5793 5794 5796 5799 5800 5801 5804 5805 5807 5809
5845 5843 5841 5838 5836 5834 5832 5829 5827 5824 5821 5818 5815 5813 5810 5807 5804 5800 5797 5792 5788 5786 5783 5782 5779 5779 5778 5777 5776 5777 5777 5777 5778 5779 5780 5782 5784 5786 5789 5791 5794 5796 5798
5840 5837 5835 5833 5830 5828 5826 5823 5820 5817 5813 5810 5806 5802 5799 5795 5791 5789 5785 5780 5776 5772 5769 5767 5766 5764 5761 5761 5761 5762 5762 5762 5763 5764 5765 5767 5769 5771 5774 5777 5779 5782 5786
5835 5832 5829 5826 5823 5821 5819 5816 5812 5809 5804 5800 5796 5792 5788 5783 5779 5775 5770 5765 5761 5759 5755 5751 5750 5749 5746 5745 5745 5747 5747 5746 5746 5747 5749 5752 5753 5755 5758 5761 5763 5766 5771
5830 5826 5824 5821 5817 5814 5811 5808 5804 5799 5794 5789 5784 5780 5776 5771 5766 5763 5758 5753 5749 5744 5741 5737 5733 5731 5728 5729 5730 5731 5731 5731 5731 5732 5733 5734 5735 5738 5740 5742 5745 5749 5753
5824 5820 5817 5813 5810 5806 5802 5798 5794 5789 5783 5777 5772 5768 5763 5757 5751 5747 5741 5737 5732 5727 5723 5720 5718 5716 5714 5711 5713 5715 5716 5718 5717 5718 5719 5720 5720 5721 5722 5722 5725 5729 5734
5818 5814 5810 5806 5801 5797 5793 5788 5783 5776 5770 5764 5759 5754 5748 5742 5734 5729 5724 5718 5714 5709 5706 5704 5704 5703 5701 5701 5700 5700 5703 5704 5703 5703 5704 5705 5704 5706 5706 5707 5707 5709 5713
5809 5806 5802 5797 5792 5787 5782 5776 5770 5763 5757 5749 5743 5737 5730 5723 5717 5711 5705 5700 5698 5694 5693 5692 5690 5689 5689 5688 5689 5689 5689 5691 5690 5689 5689 5690 5689 5690 5692 5693 5693 5693 5695
5798 5794 5790 5785 5780 5774 5769 5762 5756 5748 5741 5733 5726 5720 5714 5705 5699 5695 5689 5685 5684 5682 5681 5679 5677 5676 5675 5675 5675 5675 5674 5674 5675 5674 5673 5673 5673 5674 5675 5678 5679 5679 5680
5785 5781 5776 5771 5766 5759 5753 5746 5740 5733 5725 5719 5712 5705 5698 5690 5683 5680 5677 5675 5673 5670 5669 5668 5666 5664 5663 5661 5661 5660 5659 5659 5657 5657 5657 5657 5657 5658 5659 5662 5664 5665 5665
5771 5767 5763 5758 5752 5745 5738 5732 5725 5719 5711 5704 5697 5690 5684 5679 5673 5668 5665 5662 5660 5659 5657 5655 5652 5650 5649 5647 5645 5644 5643 5642 5639 5639 5640 5641 5640 5641 5642 5645 5650 5652 5652
5758 5753 5750 5744 5738 5731 5724 5718 5712 5705 5697 5689 5682 5675 5669 5664 5660 5656 5652 5648 5646 5644 5642 5639 5635 5634 5632 5630 5628 5627 5627 5624 5623 5623 5623 5624 5624 5625 5626 5629 5633 5637 5641
5746 5742 5737 5731 5724 5717 5711 5705 5697 5690 5682 5674 5668 5662 5656 5649 5645 5641 5638 5634 5630 5627 5624 5620 5616 5613 5611 5610 5608 5608 5607 5606 5606 5606 5607 5607 5608 5609 5611 5614 5617 5622 5626
5734 5729 5724 5717 5710 5703 5696 5690 5681 5674 5666 5660 5654 5649 5643 5637 5632 5627 5622 5617 5612 5608 5606 5600 5595 5592 5590 5589 5588 5587 5586 5587 5587 5588 5589 5590 5591 5593 5596 5599 5603 5608 5612
5721 5715 5710 5703 5696 5689 5683 5675 5666 5659 5653 5646 5640 5635 5630 5624 5618 5612 5606 5599 5592 5587 5584 5580 5575 5572 5570 5569 5568 5567 5565 5567 5569 5569 5571 5573 5574 5577 5582 5585 5590 5595 5601
5709 5703 5697 5690 5684 5677 5669 5661 5654 5645 5640 5634 5627 5620 5614 5608 5601 5594 5586 5579 5573 5567 5563 5560 5556 5555 5553 5551 5550 5549 5549 5551 5552 5552 5554 5555 5558 5563 5568 5573 5578 5584 5589
5696 5691 5684 5677 5671 5663 5656 5648 5641 5632 5625 5619 5612 5605 5597 5590 5584 5576 5568 5561 5555 5548 5546 5545 5541 5541 5540 5538 5538 5537 5537 5537 5537 5538 5540 5542 5547 5552 5557 5562 5568 5574 5578
5684 5677 5671 5664 5658 5651 5643 5635 5627 5619 5610 5603 5595 5587 5580 5573 5567 5559 5552 5546 5539 5534 5532 5531 5530 5529 5528 5528 5527 5526 5526 5525 5525 5527 5529 5533 5537 5542 5547 5553 5559 5564 5568
5672 5666 5659 5651 5644 5637 5630 5621 5613 5604 5596 5587 5579 5571 5564 5557 5551 5544 5539 5534 5529 5524 5521 5520 5520 5520 5519 5518 5518 5518 5517 5516 5518 5520 5522 5526 5530 5534 5540 5545 5550 5554 5558
5660 5654 5646 5638 5631 5624 5616 5606 5597 5589 5580 5572 5564 5556 5549 5543 5537 5532 5528 5524 5520 5516 5513 5512 5513 5513 5512 5511 5511 5511 5511 5512 5514 5517 5519 5522 5526 5529 5533 5536 5541 5545 5548
5648 5640 5633 5625 5618 5610 5601 5592 5583 5575 5567 5559 5551 5544 5537 5531 5526 5521 5517 5515 5512 5510 5508 5507 5507 5506 5505 5505 5506 5507 5508 5510 5512 5514 5516 5519 5521 5524 5527 5531 5533 5536 5539
5636 5628 5620 5613 5605 5596 5588 5579 5571 5564 5555 5547 5540 5534 5527 5521 5515 5511 5508 5507 5506 5505 5504 5502 5502 5501 5501 5501 5503 5505 5507 5509 5510 5512 5513 5515 5517 5519 5521 5523 5524 5527 5530
5623 5616 5608 5600 5593 5585 5577 5569 5560 5553 5545 5538 5532 5525 5518 5511 5506 5503 5501 5501 5501 5500 5499 5498 5499 5498 5499 5500 5502 5504 5506 5508 5509 5510 5511 5512 5512 5513 5513 5514 5516 5518 5519
5611 5605 5597 5589 5582 5575 5567 5559 5552 5544 5537 5530 5524 5517 5511 5505 5500 5497 5496 5497 5497 5497 5497 5497 5498 5498 5499 5501 5502 5504 5505 5506 5508 5509 5509 5510 5509 5508 5507 5507 5507 5507 5507
5601 5594 5587 5579 5572 5565 5558 5551 5543 5536 5530 5524 5517 5511 5505 5500 5496 5494 5493 5493 5494 5496 5497 5498 5499 5499 5500 5501 5502 5503 5505 5506 5508 5508 5508 5507 5505 5503 5502 5502 5502 5503 5501